McGuire AFB, NJ

10:49 PM EDT on May 25, 2018 (GMT -0400)
McGuire Air Force Base

Weather History for KWRI - February, 2013

Change the Weather History Date:

Friday, February 8, 2013

  Actual Average Record
Temperature  
Mean Temperature 36 °F -  
Max Temperature 41 °F 41 °F 65 °F (2017)
Min Temperature 30 °F 23 °F 12 °F (2003)
Degree Days  
Heating Degree Days 30    
Moisture  
Dew Point 34 °F    
Average Humidity 91    
Maximum Humidity 100    
Minimum Humidity 78    
Precipitation  
Precipitation 0.58 in - - ()
Sea Level Pressure  
Sea Level Pressure 29.86 in    
Wind  
Wind Speed 12 mph (North)    
Max Wind Speed 22 mph    
Max Gust Speed 30 mph    
Visibility 7 miles    
Events Rain , Snow    
Averages and records for this station are not official NWS values.
T = Trace of Precipitation, MM = Missing Value Source: NWS Daily Summary

Daily Weather History Graph

Daily Weather History Graph

Search for Another Location

Airport or City:

Astronomy

Feb. 08, 2013 Rise Set
Actual Time 6:59 AM EST 5:26 PM EST
Civil Twilight 6:31 AM EST 5:54 PM EST
Nautical Twilight 5:59 AM EST 6:26 PM EST
Astronomical Twilight 5:27 AM EST 6:58 PM EST
Moon 5:26 AM EST (2/8) 3:56 PM EST (2/8)
Length of Visible Light 11h 23m
Length of Day
10h 26m
Waning Crescent, 3% of the Moon is Illuminated
Feb 8
Waning Crescent
Feb 10
New
Feb 17
First Quarter
Feb 25
Full
Mar 4
Last Quarter

Hourly Weather History & Observations

Time (EST) Temp. Windchill Dew Point Humidity Pressure Visibility Wind Dir Wind Speed Gust Speed Precip Events Conditions
12:55 AM 34.7 °F 29.6 °F 28.6 °F 78% 30.24 in 10.0 mi NE 5.8 mph - N/A   Overcast
1:55 AM 36.1 °F 29.9 °F 31.8 °F 84% 30.20 in 10.0 mi NE 8.1 mph - N/A   Mostly Cloudy
2:13 AM 35.6 °F 29.9 °F 32.0 °F 87% 30.19 in 10.0 mi ENE 6.9 mph - N/A   Mostly Cloudy
2:55 AM 39.2 °F 32.5 °F 35.2 °F 86% 30.17 in 10.0 mi ENE 10.4 mph - N/A   Overcast
3:40 AM 39.2 °F 31.6 °F 35.6 °F 87% 30.13 in 10.0 mi ENE 12.7 mph - N/A   Overcast
3:55 AM 40.1 °F 33.2 °F 36.3 °F 86% 30.12 in 10.0 mi ENE 11.5 mph - N/A   Overcast
4:01 AM 39.2 °F 32.0 °F 35.6 °F 87% 30.12 in 10.0 mi ENE 11.5 mph - N/A   Overcast
4:05 AM 41.0 °F 34.3 °F 35.6 °F 81% 30.12 in 10.0 mi ENE 11.5 mph - N/A   Overcast
4:47 AM 41.0 °F 34.7 °F 35.6 °F 81% 30.10 in 10.0 mi NE 10.4 mph - N/A   Overcast
4:53 AM 41.0 °F 34.3 °F 35.6 °F 81% 30.10 in 10.0 mi NE 11.5 mph - N/A   Overcast
4:55 AM 40.1 °F 33.2 °F 36.3 °F 86% 30.09 in 10.0 mi NE 11.5 mph - N/A   Overcast
5:05 AM 41.0 °F 35.2 °F 35.6 °F 81% 30.09 in 10.0 mi NE 9.2 mph - N/A   Overcast
5:07 AM 39.2 °F 32.5 °F 35.6 °F 87% 30.09 in 10.0 mi NE 10.4 mph - N/A   Overcast
5:14 AM 39.2 °F 32.5 °F 37.4 °F 93% 30.09 in 10.0 mi NE 10.4 mph - N/A   Overcast
5:18 AM 39.2 °F 31.6 °F 37.4 °F 93% 30.09 in 10.0 mi NE 12.7 mph - N/A   Overcast
5:21 AM 39.2 °F 32.5 °F 37.4 °F 93% 30.09 in 10.0 mi NE 10.4 mph - N/A   Overcast
5:22 AM 39.2 °F 32.0 °F 37.4 °F 93% 30.09 in 10.0 mi ENE 11.5 mph - N/A   Overcast
5:35 AM 39.2 °F 33.6 °F 37.4 °F 93% 30.09 in 9.0 mi ENE 8.1 mph - N/A   Overcast
5:40 AM 39.2 °F 33.0 °F 37.4 °F 93% 30.08 in 8.0 mi NE 9.2 mph - N/A Rain Light Rain
5:55 AM 39.6 °F 33.0 °F 37.6 °F 93% 30.07 in 8.0 mi NE 10.4 mph - 0.01 in Rain Light Rain
6:02 AM 39.2 °F 33.0 °F 37.4 °F 93% 30.06 in 9.0 mi NE 9.2 mph - N/A Rain Light Rain
6:24 AM 39.2 °F 32.5 °F 37.4 °F 93% 30.05 in 10.0 mi NE 10.4 mph - N/A Rain Light Rain
6:38 AM 39.2 °F 32.5 °F 37.4 °F 93% 30.04 in 10.0 mi NE 10.4 mph - N/A Rain Light Rain
6:42 AM 39.2 °F 32.5 °F 37.4 °F 93% 30.04 in 9.0 mi NE 10.4 mph - N/A Rain Light Rain
6:55 AM 39.6 °F 32.1 °F 38.5 °F 96% 30.04 in 8.0 mi NE 12.7 mph - 0.02 in Rain Light Rain
7:00 AM 39.2 °F 31.6 °F 39.2 °F 100% 30.03 in 8.0 mi NE 12.7 mph - N/A Rain Light Rain
7:25 AM 41.0 °F 34.7 °F 39.2 °F 93% 30.02 in 10.0 mi ENE 10.4 mph - N/A Rain Light Rain
7:32 AM 41.0 °F 35.2 °F 39.2 °F 93% 30.02 in 10.0 mi NE 9.2 mph - N/A   Overcast
7:37 AM 41.0 °F 34.7 °F 39.2 °F 93% 30.02 in 10.0 mi NE 10.4 mph - N/A Rain Light Rain
7:55 AM 40.5 °F 33.2 °F 39.4 °F 96% 30.01 in 7.0 mi NE 12.7 mph - 0.03 in Rain Light Rain
8:05 AM 41.0 °F 34.7 °F 39.2 °F 93% 30.01 in 7.0 mi NE 10.4 mph - N/A Rain Light Rain
8:15 AM 41.0 °F 33.9 °F 41.0 °F 100% 30.00 in 7.0 mi NE 12.7 mph - N/A Rain Light Rain
8:34 AM 37.4 °F 29.8 °F 37.4 °F 100% 29.99 in 6.0 mi North 11.5 mph - N/A Rain Rain
8:55 AM 36.5 °F 29.2 °F 35.4 °F 96% 29.98 in 6.0 mi NNE 10.4 mph - 0.05 in Rain Rain
9:55 AM 38.3 °F 32.5 °F 37.8 °F 98% 29.92 in 6.0 mi NNE 8.1 mph - 0.08 in Rain Light Rain
10:07 AM 41.0 °F 33.1 °F 39.2 °F 93% 29.91 in 7.0 mi NE 15.0 mph - N/A Rain Light Rain
10:14 AM 41.0 °F 33.5 °F 41.0 °F 100% 29.90 in 7.0 mi NE 13.8 mph - N/A Rain Light Rain
10:26 AM 41.0 °F 32.8 °F 41.0 °F 100% 29.88 in - NE 16.1 mph - N/A Rain Light Rain
10:34 AM 41.0 °F 32.5 °F 39.2 °F 93% 29.88 in 10.0 mi NE 17.3 mph 23.0 mph N/A Rain Light Rain
10:55 AM 40.8 °F 32.6 °F 39.6 °F 95% 29.87 in 8.0 mi NE 16.1 mph - 0.03 in Rain Light Rain
11:55 AM 39.7 °F 30.3 °F 37.9 °F 93% 29.81 in 8.0 mi NE 19.6 mph 25.3 mph 0.05 in Rain Light Rain
12:55 PM 37.8 °F 27.7 °F 36.0 °F 93% 29.74 in 9.0 mi NNE 19.6 mph 28.8 mph 0.02 in Rain Light Rain
1:55 PM 37.0 °F 26.7 °F 35.2 °F 93% 29.70 in 5.0 mi NNE 19.6 mph 28.8 mph 0.07 in Rain Rain
2:06 PM 37.4 °F 28.2 °F 33.8 °F 87% 29.66 in 10.0 mi NNE 16.1 mph 26.5 mph N/A Rain Light Rain
2:55 PM 36.5 °F 26.0 °F 34.3 °F 92% 29.67 in 10.0 mi NNE 19.6 mph 25.3 mph 0.08 in Rain Light Rain
3:06 PM 37.4 °F 28.2 °F 33.8 °F 87% 29.67 in 10.0 mi North 16.1 mph 26.5 mph N/A Rain Light Freezing Rain
3:15 PM 35.6 °F 24.2 °F 33.8 °F 93% 29.66 in 9.0 mi NNE 21.9 mph - N/A Rain Light Rain
3:55 PM 34.9 °F 25.3 °F 32.7 °F 92% 29.65 in 10.0 mi NNE 15.0 mph 27.6 mph 0.05 in Rain Light Rain
4:43 PM 33.8 °F 22.8 °F 32.0 °F 93% 29.64 in 10.0 mi North 18.4 mph 21.9 mph N/A   Overcast
4:55 PM 34.5 °F 23.8 °F 32.2 °F 91% 29.64 in 10.0 mi North 18.4 mph - 0.02 in   Overcast
5:55 PM 33.8 °F 23.5 °F 31.5 °F 91% 29.64 in 10.0 mi North 16.1 mph - N/A   Overcast
6:17 PM 33.8 °F 24.3 °F 32.0 °F 93% 29.64 in 10.0 mi North 13.8 mph - N/A   Overcast
6:55 PM 33.6 °F 24.6 °F 31.3 °F 91% 29.64 in 10.0 mi North 12.7 mph 20.7 mph N/A   Overcast
7:21 PM 33.8 °F 24.8 °F 30.2 °F 87% 29.65 in 10.0 mi NNW 12.7 mph - N/A   Overcast
7:40 PM 33.8 °F 24.3 °F 30.2 °F 87% 29.66 in 10.0 mi NW 13.8 mph - N/A   Overcast
7:52 PM 33.8 °F 25.3 °F 30.2 °F 87% 29.67 in 10.0 mi NW 11.5 mph - N/A   Overcast
7:55 PM 33.3 °F 23.7 °F 30.7 °F 90% 29.67 in 10.0 mi NW 13.8 mph - 0.00 in   Overcast
8:07 PM 33.8 °F 24.8 °F 30.2 °F 87% 29.67 in 10.0 mi NW 12.7 mph - N/A Rain Light Rain
8:18 PM 33.8 °F 25.3 °F 30.2 °F 87% 29.68 in 7.0 mi NW 11.5 mph - N/A Rain Rain
8:23 PM 32.0 °F 23.6 °F 30.2 °F 93% 29.68 in 5.0 mi WNW 10.4 mph - N/A Rain Light Rain
8:29 PM 32.0 °F 22.5 °F 30.2 °F 93% 29.68 in 4.0 mi WNW 12.7 mph - N/A   Overcast
8:33 PM 32.0 °F 23.0 °F 30.2 °F 93% 29.68 in 2.5 mi WNW 11.5 mph - N/A   Overcast
8:34 PM 32.0 °F 22.5 °F 30.2 °F 93% 29.68 in 2.5 mi WNW 12.7 mph - N/A   Overcast
8:36 PM 32.0 °F 22.5 °F 30.2 °F 93% 29.68 in 2.5 mi WNW 12.7 mph - N/A Rain Light Freezing Rain
8:37 PM 32.0 °F 22.5 °F 30.2 °F 93% 29.68 in 2.5 mi WNW 12.7 mph - N/A Snow Light Snow
8:55 PM 32.4 °F 22.5 °F 31.1 °F 95% 29.69 in 2.5 mi WNW 13.8 mph - 0.02 in Snow Light Snow
9:04 PM 32.0 °F 21.2 °F 30.2 °F 93% 29.70 in 2.0 mi NW 16.1 mph 23.0 mph N/A Snow Light Snow
9:10 PM 32.0 °F 21.2 °F 30.2 °F 93% 29.70 in 2.0 mi NW 16.1 mph 23.0 mph N/A Snow Light Snow
9:17 PM 32.0 °F 21.2 °F 30.2 °F 93% 29.70 in 1.8 mi WNW 16.1 mph - N/A Snow Light Snow
9:18 PM 32.0 °F 21.2 °F 30.2 °F 93% 29.70 in 1.8 mi NW 16.1 mph - N/A Snow Light Snow
9:22 PM 32.0 °F 21.2 °F 30.2 °F 93% 29.70 in 1.5 mi WNW 16.1 mph - N/A Snow Light Snow
9:35 PM 32.0 °F 21.2 °F 30.2 °F 93% 29.70 in 1.5 mi WNW 16.1 mph - N/A Snow Light Snow
9:55 PM 31.8 °F 20.6 °F 30.6 °F 95% 29.71 in 1.8 mi WNW 17.3 mph 24.2 mph 0.03 in Snow Light Snow
10:11 PM 32.0 °F 20.8 °F 30.2 °F 93% 29.72 in 1.8 mi WNW 17.3 mph - N/A Snow Light Snow
10:19 PM 32.0 °F 21.2 °F 30.2 °F 93% 29.72 in 2.0 mi WNW 16.1 mph - N/A Snow Light Snow
10:23 PM 32.0 °F 21.2 °F 30.2 °F 93% 29.72 in 1.8 mi WNW 16.1 mph 23.0 mph N/A Snow Light Snow
10:55 PM 31.6 °F 19.0 °F 29.8 °F 93% 29.73 in 1.8 mi NW 21.9 mph 25.3 mph 0.01 in Snow Light Snow
10:59 PM 32.0 °F 20.1 °F 30.2 °F 93% 29.73 in 2.0 mi NW 19.6 mph 25.3 mph N/A Snow Light Snow
11:03 PM 32.0 °F 20.1 °F 30.2 °F 93% 29.73 in 2.0 mi NW 19.6 mph - N/A Snow Light Snow
11:24 PM 32.0 °F 19.5 °F 28.4 °F 87% 29.74 in 3.0 mi NNW 21.9 mph 29.9 mph N/A Snow Light Snow
11:28 PM 32.0 °F 19.8 °F 28.4 °F 87% 29.74 in 3.0 mi NNW 20.7 mph 29.9 mph N/A Snow Light Snow
11:52 PM 30.2 °F 19.8 °F 28.4 °F 93% 29.75 in 2.5 mi NNW 13.8 mph - N/A Snow Light Snow
11:55 PM 30.7 °F 20.9 °F 28.9 °F 93% 29.75 in 2.5 mi NW 12.7 mph - 0.01 in Snow Light Snow
11:57 PM 30.2 °F 19.8 °F 28.4 °F 93% 29.75 in 2.5 mi NW 13.8 mph - N/A Snow Light Snow